2023/07/24 00:00:00,84.1,19.8
2023/07/24 00:10:00,84.1,19.8
2023/07/24 00:20:00,84.2,19.8
2023/07/24 00:30:00,84.1,19.9
2023/07/24 00:40:00,84.1,19.8
2023/07/24 00:50:00,84.1,19.6
2023/07/24 01:00:00,84.1,19.7
2023/07/24 01:10:00,84.1,19.9
2023/07/24 01:20:00,84.1,19.8
2023/07/24 01:30:00,84.1,19.9
2023/07/24 01:40:00,84.1,19.6
2023/07/24 01:50:00,84.1,19.8
2023/07/24 02:00:00,84.1,19.7
2023/07/24 02:10:00,84.1,19.8
2023/07/24 02:20:00,84.1,19.7
2023/07/24 02:30:00,84.1,19.7
2023/07/24 02:40:00,84.1,19.8
2023/07/24 02:50:00,84.1,19.8
2023/07/24 03:00:00,84.1,19.7
2023/07/24 03:10:00,84.1,19.7
2023/07/24 03:20:00,84.1,19.5
2023/07/24 03:30:00,84.1,19.7
2023/07/24 03:40:00,84.1,19.7
2023/07/24 03:50:00,84.1,19.6
2023/07/24 04:00:00,84.1,19.7
2023/07/24 04:10:00,84.1,19.6
2023/07/24 04:20:00,84.1,19.5
2023/07/24 04:30:00,84.1,19.4
2023/07/24 04:40:00,84.1,19.6
2023/07/24 04:50:00,84.1,19.6
2023/07/24 05:00:00,84.1,19.5
2023/07/24 05:10:00,84.2,19.5
2023/07/24 05:20:00,84.2,19.5
2023/07/24 05:30:00,84.2,19.6
2023/07/24 05:40:00,84.3,19.6
2023/07/24 05:50:00,84.3,19.7
2023/07/24 06:00:00,84.3,19.7
2023/07/24 06:10:00,84.4,19.8
2023/07/24 06:20:00,84.4,19.9
2023/07/24 06:30:00,84.4,19.9
2023/07/24 06:40:00,84.3,20.1
2023/07/24 06:50:00,84.3,20.2
2023/07/24 07:00:00,84.4,20.4
2023/07/24 07:10:00,84.4,20.4
2023/07/24 07:20:00,84.4,21.1
2023/07/24 07:30:00,84.4,21.6
2023/07/24 07:40:00,85.1,25.8
2023/07/24 07:50:00,85.3,27.7
2023/07/24 08:00:00,84.9,27.5
2023/07/24 08:10:00,84.8,27.4
2023/07/24 08:20:00,84.9,27.9
2023/07/24 08:30:00,85.2,28.4
2023/07/24 08:40:00,---,28.2
2023/07/24 08:50:00,41.4,27.2
2023/07/24 09:00:00,29.4,27.1
2023/07/24 09:10:00,30.3,26.6
2023/07/24 09:20:00,37.8,26.9
2023/07/24 09:30:00,31.0,27.3
2023/07/24 09:40:00,35.6,28.5
2023/07/24 09:50:00,49.6,28.0
2023/07/24 10:00:00,29.5,28.6
2023/07/24 10:10:00,---,29.2
2023/07/24 10:20:00,68.0,29.0
2023/07/24 10:30:00,51.1,29.7
2023/07/24 10:40:00,28.8,29.4
2023/07/24 10:50:00,---,29.9
2023/07/24 11:00:00,29.3,30.0
2023/07/24 11:10:00,62.4,29.3
2023/07/24 11:20:00,84.7,29.1
2023/07/24 11:30:00,---,30.3
2023/07/24 11:40:00,---,31.4
2023/07/24 11:50:00,---,30.6
2023/07/24 12:00:00,---,29.4
2023/07/24 12:10:00, 0.0,29.8
2023/07/24 12:20:00, 0.0,30.8
2023/07/24 12:30:00, 0.0,29.9
2023/07/24 12:40:00, 0.0,31.1
2023/07/24 12:50:00, 0.0,31.9
2023/07/24 13:00:00,---,32.1
2023/07/24 13:10:00, 0.0,31.6
2023/07/24 13:20:00, 0.0,32.4
2023/07/24 13:30:00,---,32.0
2023/07/24 13:40:00, 0.0,32.4
2023/07/24 13:50:00,---,31.8
2023/07/24 14:00:00, 0.0,30.8
2023/07/24 14:10:00, 0.0,32.6
2023/07/24 14:20:00,---,32.8
2023/07/24 14:30:00, 0.0,33.6
2023/07/24 14:40:00, 0.0,32.7
2023/07/24 14:50:00, 0.0,31.3
2023/07/24 15:00:00, 0.0,33.2
2023/07/24 15:10:00,---,32.3
2023/07/24 15:20:00, 0.0,32.8
2023/07/24 15:30:00, 0.0,33.7
2023/07/24 15:40:00, 0.0,33.6
2023/07/24 15:50:00, 0.0,31.9
2023/07/24 16:00:00, 0.0,32.5
2023/07/24 16:10:00,---,31.9
2023/07/24 16:20:00,---,31.4
2023/07/24 16:30:00, 0.0,31.4
2023/07/24 16:40:00, 0.0,29.3
2023/07/24 16:50:00, 0.0,28.1
2023/07/24 17:00:00, 0.0,27.8
2023/07/24 17:10:00, 0.0,27.3
2023/07/24 17:20:00,---,26.9
2023/07/24 17:30:00,117.9,26.5
2023/07/24 17:40:00,112.2,26.0
2023/07/24 17:50:00,104.9,25.6
2023/07/24 18:00:00,83.2,25.3
2023/07/24 18:10:00,83.3,25.3
2023/07/24 18:20:00,83.4,25.0
2023/07/24 18:30:00,83.3,24.7
2023/07/24 18:40:00,83.2,24.5
2023/07/24 18:50:00,83.1,24.0
2023/07/24 19:00:00,82.9,23.9
2023/07/24 19:10:00,82.9,23.5
2023/07/24 19:20:00,82.8,23.3
2023/07/24 19:30:00,82.8,23.3
2023/07/24 19:40:00,82.9,23.3
2023/07/24 19:50:00,82.7,23.1
2023/07/24 20:00:00,82.6,22.9
2023/07/24 20:10:00,82.6,23.0
2023/07/24 20:20:00,82.6,22.6
2023/07/24 20:30:00,82.7,22.5
2023/07/24 20:40:00,82.7,22.5
2023/07/24 20:50:00,82.8,22.3
2023/07/24 21:00:00,82.9,22.3
2023/07/24 21:10:00,83.0,22.0
2023/07/24 21:20:00,83.1,22.1
2023/07/24 21:30:00,83.2,21.6
2023/07/24 21:40:00,83.2,21.7
2023/07/24 21:50:00,83.3,21.4
2023/07/24 22:00:00,83.4,21.3
2023/07/24 22:10:00,83.7,21.3
2023/07/24 22:20:00,83.8,21.2
2023/07/24 22:30:00,83.7,21.1
2023/07/24 22:40:00,83.7,21.0
2023/07/24 22:50:00,83.9,20.9
2023/07/24 23:00:00,83.9,20.8
2023/07/24 23:10:00,83.9,20.8
2023/07/24 23:20:00,84.0,20.7
2023/07/24 23:30:00,84.1,20.7
2023/07/24 23:40:00,84.1,20.9
2023/07/24 23:50:00,84.3,20.7
